Flag for Greece Weather past 2 weeks in Athens, Greece

Now
93 °F

Sunny.


Feels Like: 94 °F
Forecast: 74 / 97 °F
Wind: 10 mph from Southwest

Location: Elefsis Airport

Current Time: Aug 21, 2014 at 5:48:36 PM

Latest Report: Aug 21, 2014 at 4:50 PM


Visibility: 10 mi

Pressure: 29.92 "Hg

Humidity: 36%

Dew point: 63 °F

Location of AthensLocation

Historic Weather in Athens — Graph

°F

Athens temperature yesterday

Maximum temperature yesterday: 91 °F (at 2:50 PM)
Minimum temperature yesterday: 70 °F (at 5:50 AM)
Average temperature yesterday: 80 °F

Past Weeks' High & Low Weather Summary

 TemperatureHumidityPressure
High102 °F (Aug 16, 3:50 PM)78% (Aug 7, 6:20 AM)30.01 "Hg (Aug 7, 6:20 AM)
Low68 °F (Aug 7, 6:20 AM)9% (Aug 16, 3:20 PM)29.62 "Hg (Aug 6, 4:20 PM)
Average84 °F39%29.85 "Hg
* Reported Aug 6 4:20 PM — Aug 21 4:20 PM, Athens, Weather by CustomWeather, © 2014

Note: Actual official high and low records may vary slightly from our data, if they occured in-between our weather recording intervals... More about our weather records

Advertising

Athens weather history for previous 24 hours

 ConditionsComfort  
Time TempWeatherWind HumidityBarometerVisibility
4:20 PM
Aug 21
93 °FSunny.12 mph30%29.92 "Hg10 mi
3:50 PM95 °FSunny.12 mph26%29.95 "Hg10 mi
3:20 PM95 °FSunny.14 mph23%29.95 "Hg10 mi
2:50 PM93 °FSunny.10 mph24%29.95 "Hg10 mi
2:20 PM93 °FSunny.10 mph30%29.95 "Hg10 mi
1:50 PM93 °FSunny.10 mph28%29.98 "Hg10 mi
1:20 PM91 °FSunny.9 mph34%29.98 "Hg10 mi
12:50 PM93 °FSunny.8 mph30%29.98 "Hg10 mi
12:20 PM93 °FSunny.8 mph30%29.98 "Hg10 mi
11:50 AM91 °FSunny.8 mph28%29.98 "Hg10 mi
11:20 AM90 °FSunny.6 mph31%29.98 "Hg10 mi
10:50 AM90 °FSunny.No wind29%29.98 "Hg10 mi
10:20 AM88 °FSunny.No wind33%29.98 "Hg10 mi
9:50 AM84 °FSunny.No wind40%29.98 "Hg10 mi
9:20 AM82 °FSunny.No wind42%29.98 "Hg10 mi
8:50 AM81 °FSunny.No wind45%29.98 "Hg10 mi
8:20 AM77 °FSunny.5 mph44%29.98 "Hg10 mi
7:50 AM73 °FSunny.3 mph50%29.98 "Hg10 mi
7:20 AM70 °FClear.3 mph57%29.98 "Hg10 mi
6:50 AM70 °FClear.3 mph57%29.95 "Hg10 mi
6:20 AM68 °FClear.5 mph60%29.95 "Hg10 mi
5:50 AM70 °FClear.5 mph57%29.95 "Hg10 mi
5:20 AM70 °FClear.No wind60%29.95 "Hg10 mi
4:50 AM70 °FClear.No wind60%29.95 "Hg10 mi
4:20 AM70 °FClear.No wind69%29.95 "Hg10 mi
3:50 AM70 °FClear.No wind69%29.95 "Hg10 mi
3:20 AM73 °FClear.No wind65%29.95 "Hg10 mi
2:50 AM72 °FClear.No wind69%29.95 "Hg10 mi
2:20 AM73 °FClear.3 mph65%29.95 "Hg10 mi
1:50 AM73 °FClear.3 mph65%29.95 "Hg10 mi
1:20 AM72 °FClear.6 mph69%29.98 "Hg10 mi
12:50 AM73 °FClear.3 mph65%29.98 "Hg10 mi
12:20 AM73 °FClear.6 mph69%29.98 "Hg10 mi
11:50 PM
Aug 20
75 °FClear.6 mph61%29.98 "Hg10 mi
11:20 PM75 °FClear.5 mph65%29.98 "Hg10 mi
10:50 PM77 °FClear.7 mph61%29.98 "Hg10 mi
10:20 PM77 °FClear.6 mph61%29.98 "Hg10 mi
9:50 PM79 °FClear.5 mph65%29.98 "Hg10 mi
9:20 PM81 °FClear.9 mph58%29.95 "Hg10 mi
8:50 PM81 °FSunny.9 mph58%29.95 "Hg10 mi
8:20 PM81 °FSunny.8 mph54%29.95 "Hg10 mi
7:50 PM82 °FSunny.9 mph51%29.95 "Hg10 mi
7:20 PM84 °FSunny.13 mph48%29.95 "Hg10 mi
6:50 PM86 °FSunny.13 mph46%29.95 "Hg10 mi
6:20 PM88 °FSunny.14 mph40%29.95 "Hg10 mi
5:50 PM88 °FSunny.14 mph40%29.95 "Hg10 mi
5:20 PM91 °FSunny.12 mph28%29.95 "Hg10 mi
Weather by CustomWeather, © 2014

See weather overviewHow to use our weather pages